{"data":{"norad_id":56546,"epoch":"2026-05-24T10:23:00.117600Z","epoch_age_seconds":127143,"freshness":"FRESH","line1":"1 56546U 23065AV  26144.43264025  .00013023  00000+0  48148-3 0  9991","line2":"2 56546  43.0039 156.0360 0002361 286.4832  73.5760 15.27611539168051","mean_motion":15.27611539,"eccentricity":0.0002361,"inclination_deg":43.0039,"raan_deg":156.036,"arg_perigee_deg":286.4832,"mean_anomaly_deg":73.576,"bstar":0.00048148,"rev_number":16805,"period_min":94.264802486544,"perigee_km":481.3347548118,"apogee_km":484.57456229297,"semimajor_km":6861.0916585524,"source":"CELESTRAK","updated_at":"2026-05-25T13:38:18.115681Z"}}